{"data":{"norad_id":53928,"intl_designator":"2022-119AU","name":"STARLINK-5009","alt_names":[],"object_type":"PAYLOAD","status":"ACTIVE","operator":null,"country":"US","launch_date":"2022-09-24","launch_site_code":"AFETR","launch_vehicle":null,"mission":null,"orbit_class":"UNKNOWN","rcs_meters":null,"size_class":null,"mass_kg":null,"dimensions":null,"purposes":["comms"],"wikipedia_slug":null,"has_3d_model":false,"image_url":null,"decayed_at":null,"tle_current":{"epoch":"2026-09-19T22:51:10.676160Z","epoch_age_seconds":134003,"freshness":"FRESH","line1":"1 53928U 22119AU  26262.95220690  .00000630  00000+0  57717-4 0  9992","line2":"2 53928  53.1603 151.2848 0001094  95.2696 264.8420 15.08822030221298","mean_motion":15.0882203,"eccentricity":0.0001094,"inclination_deg":53.1603,"raan_deg":151.2848,"arg_perigee_deg":95.2696,"mean_anomaly_deg":264.842,"bstar":5.7717e-5,"rev_number":22129,"period_min":95.43869133459,"perigee_km":539.04149448661,"apogee_km":540.55513873388,"semimajor_km":6917.9353166102,"source":"CELESTRAK","updated_at":"2026-09-21T09:00:33.036804Z"}}}